This is the latest recevied weather packets stored in our database for station/object PU5FJO-13. If no packets are shown the sender has not sent any weather packets the latest 10 day(s).
| Time | Temp. | Humidity | Pressure | Rain* | Wind** | Luminosity | Snow |
|---|---|---|---|---|---|---|---|
| 1778003174 | 26.67° C | 63% | 1017.7 hPa | - | - | - | - |
| 1778002574 | 27.78° C | 60% | 1017.7 hPa | - | - | - | - |
| 1778001974 | 27.78° C | 60% | 1017.8 hPa | - | - | - | - |
| 1778001374 | 27.78° C | 59% | 1017.8 hPa | - | - | - | - |
| 1778000774 | 27.22° C | 59% | 1017.8 hPa | - | - | - | - |
| 1778000174 | 27.78° C | 59% | 1017.9 hPa | - | - | - | - |
| 1777999573 | 27.22° C | 59% | 1018.2 hPa | - | - | - | - |
| 1777998973 | 27.78° C | 60% | 1018.3 hPa | - | - | - | - |
| 1777998374 | 27.22° C | 60% | 1018.6 hPa | - | - | - | - |
| 1777997773 | 26.67° C | 61% | 1018.6 hPa | - | - | - | - |
| 1777997173 | 26.67° C | 61% | 1018.6 hPa | - | - | - | - |
| 1777996574 | 26.67° C | 61% | 1018.7 hPa | - | - | - | - |
| 1777995973 | 26.67° C | 62% | 1018.8 hPa | - | - | - | - |
| 1777995374 | 26.11° C | 62% | 1018.9 hPa | - | - | - | - |
| 1777994773 | 26.11° C | 62% | 1019.1 hPa | - | - | - | - |
| 1777994173 | 25.56° C | 63% | 1019.1 hPa | - | - | - | - |
| 1777993573 | 25.56° C | 63% | 1019 hPa | - | - | - | - |
| 1777992973 | 25.56° C | 62% | 1019.2 hPa | - | - | - | - |
| 1777992373 | 25.56° C | 63% | 1019.2 hPa | - | - | - | - |
| 1777991773 | 25.56° C | 63% | 1019.3 hPa | - | - | - | - |
| 1777991173 | 25.56° C | 63% | 1019.4 hPa | - | - | - | - |
| 1777990573 | 25° C | 64% | 1019.4 hPa | - | - | - | - |
| 1777989973 | 24.44° C | 64% | 1019.6 hPa | - | - | - | - |
| 1777989373 | 24.44° C | 65% | 1019.6 hPa | - | - | - | - |
| 1777988773 | 24.44° C | 65% | 1019.7 hPa | - | - | - | - |
* Rain since midnight (hover to see other rain measurements)
** Current wind speed in m/s (hover to see current wind gust speed)